| time (UTC) | temp C | wind direction | speed KPH | gust KPH | rain 1hr cm | rain 24hr cm | rain mn cm | humidity % | barometer mb |
| 20260508063503 | 19 | 162 | 4.8 | 8.0 | 0.00 | 0.00 | 0.00 | 80 | 1007.3 |
| 20260508063215 | 19 | 158 | 3.2 | 8.0 | 0.00 | 0.00 | 0.00 | 80 | 1007.3 |
| 20260508062503 | 19 | 119 | 3.2 | 8.0 | 0.00 | 0.00 | 0.00 | 81 | 1007.3 |
| 20260508062215 | 19 | 114 | 4.8 | 8.0 | 0.00 | 0.00 | 0.00 | 81 | 1007.3 |
| 20260508061504 | 19 | 94 | 4.8 | 8.0 | 0.00 | 0.00 | 0.00 | 81 | 1007.3 |
| 20260508061004 | 18 | 101 | 4.8 | 8.0 | 0.00 | 0.00 | 0.00 | 81 | 1007.3 |
| 20260508060504 | 18 | 120 | 4.8 | 6.4 | 0.00 | 0.00 | 0.00 | 82 | 1007.3 |
| 20260508060004 | 18 | 128 | 3.2 | 6.4 | 0.00 | 0.00 | 0.00 | 82 | 1007.3 |
| 20260508055715 | 18 | 106 | 1.6 | 6.4 | 0.00 | 0.00 | 0.00 | 82 | 1007.3 |
| 20260508055004 | 18 | 90 | 0.0 | 3.2 | 0.00 | 0.00 | 0.00 | 82 | 1007.3 |
| 20260508054716 | 18 | 90 | 0.0 | 3.2 | 0.00 | 0.00 | 0.00 | 82 | 1007.3 |
| 20260508054004 | 18 | 94 | 1.6 | 3.2 | 0.00 | 0.00 | 0.00 | 82 | 1007.3 |
| 20260508053504 | 17 | 111 | 1.6 | 6.4 | 0.00 | 0.00 | 0.00 | 83 | 1007.3 |
| 20260508053215 | 17 | 122 | 3.2 | 6.4 | 0.00 | 0.00 | 0.00 | 83 | 1007.3 |
| 20260508052713 | 17 | 141 | 3.2 | 6.4 | 0.00 | 0.00 | 0.00 | 83 | 1007.3 |
| 20260508052004 | 17 | 147 | 0.0 | 3.2 | 0.00 | 0.00 | 0.00 | 83 | 1007.3 |
| 20260508051504 | 17 | 0 | 0.0 | 0.0 | 0.00 | 0.00 | 0.00 | 83 | 1007.3 |
| 20260508051004 | 17 | 45 | 0.0 | 3.2 | 0.00 | 0.00 | 0.00 | 83 | 1006.3 |
| 20260508050504 | 17 | 45 | 0.0 | 3.2 | 0.00 | 0.00 | 0.00 | 83 | 1006.3 |
| 20260508050004 | 16 | 45 | 0.0 | 3.2 | 0.00 | 0.00 | 0.00 | 84 | 1006.3 |
| 20260508045504 | 16 | 45 | 0.0 | 3.2 | 0.00 | 0.00 | 0.00 | 84 | 1006.3 |
| 20260508045214 | 16 | 45 | 0.0 | 3.2 | 0.00 | 0.00 | 0.00 | 84 | 1006.3 |
| 20260508044504 | 16 | 0 | 0.0 | 0.0 | 0.00 | 0.00 | 0.00 | 84 | 1006.3 |
| 20260508044004 | 16 | 0 | 0.0 | 0.0 | 0.00 | 0.00 | 0.00 | 84 | 1006.3 |
| 20260508043504 | 16 | 0 | 0.0 | 0.0 | 0.00 | 0.00 | 0.00 | 84 | 1006.3 |
| 20260508043004 | 16 | 0 | 0.0 | 0.0 | 0.00 | 0.00 | 0.00 | 84 | 1006.3 |
| 20260508042504 | 16 | 0 | 0.0 | 0.0 | 0.00 | 0.00 | 0.00 | 84 | 1006.3 |
| 20260508042004 | 16 | 0 | 0.0 | 0.0 | 0.00 | 0.00 | 0.00 | 84 | 1006.3 |
| 20260508041505 | 16 | 0 | 0.0 | 0.0 | 0.00 | 0.00 | 0.00 | 84 | 1006.3 |
| 20260508041003 | 16 | 0 | 0.0 | 0.0 | 0.00 | 0.00 | 0.00 | 84 | 1006.3 |
| 20260508040716 | 16 | 0 | 0.0 | 0.0 | 0.00 | 0.00 | 0.00 | 84 | 1006.3 |
| 20260508040214 | 16 | 360 | 0.0 | 1.6 | 0.00 | 0.00 | 0.00 | 83 | 1006.3 |
| 20260508035504 | 16 | 360 | 0.0 | 3.2 | 0.00 | 0.00 | 0.00 | 83 | 1006.3 |
| 20260508035215 | 16 | 360 | 0.0 | 3.2 | 0.00 | 0.00 | 0.00 | 83 | 1006.3 |
| 20260508034717 | 16 | 360 | 1.6 | 3.2 | 0.00 | 0.00 | 0.00 | 83 | 1006.3 |
| 20260508034004 | 16 | 1 | 1.6 | 3.2 | 0.00 | 0.00 | 0.00 | 83 | 1006.3 |
| 20260508033713 | 16 | 6 | 1.6 | 3.2 | 0.00 | 0.00 | 0.00 | 83 | 1006.3 |
| 20260508033216 | 16 | 32 | 3.2 | 4.8 | 0.00 | 0.00 | 0.00 | 84 | 1006.3 |
| 20260508032503 | 16 | 45 | 3.2 | 4.8 | 0.00 | 0.00 | 0.00 | 84 | 1005.3 |
| 20260508032003 | 16 | 45 | 3.2 | 4.8 | 0.00 | 0.00 | 0.00 | 84 | 1005.3 |
| 20260508031504 | 16 | 45 | 3.2 | 6.4 | 0.00 | 0.00 | 0.00 | 84 | 1005.3 |
| 20260508031003 | 16 | 45 | 3.2 | 6.4 | 0.00 | 0.00 | 0.00 | 84 | 1005.3 |
| 20260508030716 | 16 | 45 | 3.2 | 6.4 | 0.00 | 0.00 | 0.00 | 84 | 1005.3 |
| 20260508030003 | 16 | 45 | 1.6 | 4.8 | 0.00 | 0.00 | 0.00 | 84 | 1005.3 |
| 20260508025718 | 16 | 45 | 1.6 | 4.8 | 0.00 | 0.00 | 0.00 | 84 | 1005.3 |
| 20260508025215 | 16 | 55 | 3.2 | 4.8 | 0.00 | 0.00 | 0.00 | 84 | 1005.3 |
| 20260508024503 | 16 | 53 | 1.6 | 4.8 | 0.00 | 0.00 | 0.00 | 84 | 1005.3 |
| 20260508024003 | 16 | 22 | 1.6 | 3.2 | 0.00 | 0.00 | 0.00 | 84 | 1005.3 |
| 20260508023714 | 16 | 22 | 1.6 | 4.8 | 0.00 | 0.00 | 0.00 | 84 | 1005.3 |
| 20260508023004 | 16 | 22 | 1.6 | 4.8 | 0.00 | 0.00 | 0.00 | 84 | 1005.3 |
| 20260508022505 | 16 | 21 | 1.6 | 4.8 | 0.00 | 0.00 | 0.00 | 84 | 1005.3 |
| 20260508022004 | 16 | 14 | 1.6 | 4.8 | 0.00 | 0.00 | 0.00 | 84 | 1005.3 |
| 20260508021716 | 16 | 11 | 1.6 | 4.8 | 0.00 | 0.00 | 0.00 | 84 | 1005.3 |
| 20260508021004 | 17 | 0 | 0.0 | 0.0 | 0.00 | 0.00 | 0.00 | 84 | 1005.3 |
| 20260508020504 | 17 | 45 | 0.0 | 3.2 | 0.00 | 0.00 | 0.00 | 84 | 1005.3 |
| 20260508020004 | 17 | 45 | 0.0 | 3.2 | 0.00 | 0.00 | 0.00 | 83 | 1005.3 |
| 20260508015505 | 17 | 45 | 0.0 | 3.2 | 0.00 | 0.00 | 0.00 | 83 | 1005.3 |
| 20260508015004 | 17 | 45 | 0.0 | 3.2 | 0.00 | 0.00 | 0.00 | 83 | 1005.3 |
| 20260508014504 | 17 | 45 | 1.6 | 3.2 | 0.00 | 0.00 | 0.00 | 83 | 1005.3 |
| 20260508014004 | 17 | 45 | 3.2 | 6.4 | 0.00 | 0.00 | 0.00 | 83 | 1005.3 |
| 20260508013504 | 17 | 38 | 3.2 | 6.4 | 0.00 | 0.00 | 0.00 | 83 | 1005.3 |
| 20260508013218 | 17 | 30 | 1.6 | 4.8 | 0.00 | 0.00 | 0.00 | 83 | 1005.3 |
| 20260508012716 | 17 | 360 | 1.6 | 3.2 | 0.00 | 0.00 | 0.00 | 82 | 1005.3 |
| 20260508012004 | 17 | 360 | 0.0 | 3.2 | 0.00 | 0.00 | 0.00 | 82 | 1005.3 |
| 20260508011504 | 17 | 0 | 0.0 | 0.0 | 0.00 | 0.00 | 0.00 | 82 | 1005.3 |
| 20260508011004 | 17 | 360 | 0.0 | 3.2 | 0.00 | 0.00 | 0.00 | 81 | 1005.3 |
| 20260508010504 | 17 | 360 | 1.6 | 3.2 | 0.00 | 0.00 | 0.00 | 81 | 1005.3 |
| 20260508010005 | 17 | 360 | 1.6 | 3.2 | 0.00 | 0.00 | 0.00 | 81 | 1005.3 |
| 20260508005504 | 17 | 360 | 0.0 | 3.2 | 0.00 | 0.00 | 0.00 | 81 | 1005.3 |
| 20260508005004 | 17 | 0 | 0.0 | 0.0 | 0.00 | 0.00 | 0.00 | 81 | 1005.3 |
| 20260508004504 | 17 | 0 | 0.0 | 0.0 | 0.00 | 0.00 | 0.00 | 80 | 1005.3 |
| 20260508004217 | 17 | 0 | 0.0 | 0.0 | 0.00 | 0.00 | 0.00 | 80 | 1005.3 |
| 20260508003504 | 17 | 0 | 0.0 | 0.0 | 0.00 | 0.00 | 0.00 | 80 | 1005.3 |
| 20260508003213 | 17 | 0 | 0.0 | 0.0 | 0.00 | 0.00 | 0.00 | 80 | 1005.3 |
| 20260508002504 | 17 | 0 | 0.0 | 0.0 | 0.00 | 0.00 | 0.00 | 80 | 1005.3 |
| 20260508002004 | 17 | 360 | 0.0 | 3.2 | 0.00 | 0.00 | 0.00 | 79 | 1005.3 |
| 20260508001504 | 17 | 360 | 1.6 | 3.2 | 0.00 | 0.00 | 0.00 | 79 | 1005.3 |
| 20260508001004 | 17 | 360 | 0.0 | 1.6 | 0.00 | 0.00 | 0.00 | 79 | 1005.3 |
| 20260508000713 | 17 | 360 | 0.0 | 3.2 | 0.00 | 0.00 | 0.00 | 79 | 1005.3 |
| 20260508000004 | 17 | 360 | 1.6 | 4.8 | 0.00 | 0.00 | 0.00 | 79 | 1005.3 |
| 20260507235714 | 17 | 360 | 1.6 | 4.8 | 0.00 | 0.00 | 0.00 | 79 | 1005.3 |
| 20260507235004 | 17 | 357 | 1.6 | 4.8 | 0.00 | 0.00 | 0.00 | 79 | 1006.3 |
| 20260507234503 | 17 | 323 | 1.6 | 4.8 | 0.00 | 0.00 | 0.00 | 78 | 1006.3 |
| 20260507234004 | 18 | 320 | 1.6 | 4.8 | 0.00 | 0.00 | 0.00 | 78 | 1006.3 |
| 20260507233503 | 18 | 315 | 0.0 | 3.2 | 0.00 | 0.00 | 0.00 | 78 | 1006.3 |
| 20260507233003 | 18 | 315 | 0.0 | 3.2 | 0.00 | 0.00 | 0.00 | 78 | 1006.3 |
| 20260507232503 | 18 | 315 | 0.0 | 3.2 | 0.00 | 0.00 | 0.00 | 78 | 1006.3 |
| 20260507232003 | 18 | 315 | 0.0 | 3.2 | 0.00 | 0.00 | 0.00 | 78 | 1006.3 |
| 20260507231713 | 18 | 315 | 1.6 | 3.2 | 0.00 | 0.00 | 0.00 | 78 | 1006.3 |
| 20260507231005 | 18 | 322 | 1.6 | 4.8 | 0.00 | 0.00 | 0.00 | 78 | 1006.3 |
| 20260507230505 | 18 | 0 | 0.0 | 0.0 | 0.00 | 0.00 | 0.00 | 78 | 1006.3 |
| 20260507230004 | 18 | 180 | 0.0 | 3.2 | 0.00 | 0.00 | 0.00 | 78 | 1006.3 |
| 20260507225715 | 18 | 194 | 0.0 | 3.2 | 0.00 | 0.00 | 0.00 | 78 | 1006.3 |
| 20260507225003 | 18 | 284 | 1.6 | 3.2 | 0.00 | 0.00 | 0.00 | 78 | 1007.3 |
| 20260507224505 | 18 | 270 | 1.6 | 3.2 | 0.00 | 0.00 | 0.00 | 77 | 1007.3 |
| 20260507224005 | 18 | 270 | 0.0 | 1.6 | 0.00 | 0.00 | 0.00 | 77 | 1007.3 |
| 20260507223503 | 18 | 315 | 0.0 | 1.6 | 0.00 | 0.00 | 0.00 | 77 | 1007.3 |
| 20260507223003 | 18 | 301 | 1.6 | 6.4 | 0.00 | 0.00 | 0.00 | 77 | 1007.3 |
| 20260507222503 | 18 | 288 | 3.2 | 6.4 | 0.00 | 0.00 | 0.00 | 77 | 1007.3 |
| 20260507222004 | 18 | 277 | 3.2 | 6.4 | 0.00 | 0.00 | 0.00 | 77 | 1007.3 |
| 20260507221504 | 18 | 277 | 3.2 | 6.4 | 0.00 | 0.00 | 0.00 | 77 | 1007.3 |
| 20260507221004 | 18 | 277 | 6.4 | 9.7 | 0.00 | 0.00 | 0.00 | 77 | 1007.3 |
| 20260507220504 | 18 | 276 | 8.0 | 9.7 | 0.00 | 0.00 | 0.00 | 77 | 1007.3 |
| 20260507220004 | 18 | 273 | 6.4 | 9.7 | 0.00 | 0.00 | 0.00 | 76 | 1007.3 |
| 20260507215504 | 18 | 271 | 8.0 | 9.7 | 0.00 | 0.00 | 0.00 | 76 | 1007.3 |
| 20260507215004 | 18 | 273 | 8.0 | 9.7 | 0.00 | 0.00 | 0.00 | 76 | 1007.3 |
| 20260507214505 | 18 | 272 | 8.0 | 12.9 | 0.00 | 0.00 | 0.00 | 76 | 1007.3 |
| 20260507214214 | 18 | 272 | 8.0 | 12.9 | 0.00 | 0.00 | 0.00 | 76 | 1007.3 |
| 20260507213504 | 18 | 258 | 9.7 | 12.9 | 0.00 | 0.00 | 0.00 | 76 | 1007.3 |
| 20260507213215 | 18 | 249 | 9.7 | 12.9 | 0.00 | 0.00 | 0.00 | 76 | 1007.3 |
| 20260507212504 | 18 | 262 | 8.0 | 11.3 | 0.00 | 0.00 | 0.00 | 75 | 1006.3 |
| 20260507212004 | 18 | 264 | 6.4 | 11.3 | 0.00 | 0.00 | 0.00 | 75 | 1006.3 |
| 20260507211505 | 18 | 264 | 6.4 | 8.0 | 0.00 | 0.00 | 0.00 | 75 | 1006.3 |
| 20260507211004 | 18 | 271 | 8.0 | 12.9 | 0.00 | 0.00 | 0.00 | 75 | 1006.3 |
| 20260507210504 | 18 | 272 | 9.7 | 12.9 | 0.00 | 0.00 | 0.00 | 75 | 1006.3 |
| 20260507210213 | 18 | 274 | 9.7 | 12.9 | 0.00 | 0.00 | 0.00 | 75 | 1006.3 |
| 20260507205504 | 18 | 293 | 8.0 | 12.9 | 0.00 | 0.00 | 0.00 | 75 | 1005.3 |
| 20260507205004 | 18 | 302 | 8.0 | 12.9 | 0.00 | 0.00 | 0.00 | 74 | 1005.3 |
| 20260507204717 | 18 | 307 | 8.0 | 12.9 | 0.00 | 0.00 | 0.00 | 74 | 1005.3 |
| 20260507204004 | 18 | 315 | 4.8 | 8.0 | 0.00 | 0.00 | 0.00 | 74 | 1005.3 |
| 20260507203504 | 18 | 315 | 4.8 | 6.4 | 0.00 | 0.00 | 0.00 | 74 | 1005.3 |
| 20260507203004 | 18 | 315 | 3.2 | 4.8 | 0.00 | 0.00 | 0.00 | 74 | 1005.3 |
| 20260507202503 | 18 | 315 | 3.2 | 4.8 | 0.00 | 0.00 | 0.00 | 74 | 1005.3 |
| 20260507202004 | 18 | 315 | 3.2 | 4.8 | 0.00 | 0.00 | 0.00 | 73 | 1005.3 |
| 20260507201504 | 18 | 315 | 3.2 | 4.8 | 0.00 | 0.00 | 0.00 | 73 | 1005.3 |
| 20260507201004 | 18 | 315 | 3.2 | 6.4 | 0.00 | 0.00 | 0.00 | 72 | 1005.3 |
| 20260507200503 | 18 | 315 | 3.2 | 6.4 | 0.00 | 0.00 | 0.00 | 72 | 1005.3 |
| 20260507200004 | 18 | 315 | 3.2 | 6.4 | 0.00 | 0.00 | 0.00 | 72 | 1005.3 |
| 20260507195503 | 18 | 315 | 4.8 | 6.4 | 0.00 | 0.00 | 0.00 | 72 | 1005.3 |
| 20260507195003 | 19 | 315 | 6.4 | 11.3 | 0.00 | 0.00 | 0.00 | 72 | 1005.3 |
| 20260507194505 | 19 | 313 | 6.4 | 11.3 | 0.00 | 0.00 | 0.00 | 71 | 1005.3 |
| 20260507194003 | 19 | 309 | 6.4 | 8.0 | 0.00 | 0.00 | 0.00 | 72 | 1005.3 |
| 20260507193503 | 19 | 305 | 6.4 | 8.0 | 0.00 | 0.00 | 0.00 | 71 | 1005.3 |
| 20260507193217 | 19 | 306 | 6.4 | 8.0 | 0.00 | 0.00 | 0.00 | 71 | 1005.3 |
| 20260507192503 | 19 | 313 | 8.0 | 11.3 | 0.00 | 0.00 | 0.00 | 70 | 1005.3 |
| 20260507192005 | 19 | 307 | 9.7 | 11.3 | 0.00 | 0.00 | 0.00 | 70 | 1005.3 |
| 20260507191503 | 19 | 305 | 9.7 | 11.3 | 0.00 | 0.00 | 0.00 | 69 | 1005.3 |
| 20260507191003 | 19 | 306 | 8.0 | 12.9 | 0.00 | 0.00 | 0.00 | 69 | 1005.3 |
| 20260507190504 | 19 | 305 | 8.0 | 12.9 | 0.00 | 0.00 | 0.00 | 68 | 1005.3 |
| 20260507190004 | 19 | 303 | 8.0 | 9.7 | 0.00 | 0.00 | 0.00 | 68 | 1005.3 |
| 20260507185505 | 19 | 309 | 8.0 | 12.9 | 0.00 | 0.00 | 0.00 | 68 | 1004.2 |
| 20260507185003 | 19 | 306 | 8.0 | 12.9 | 0.00 | 0.00 | 0.00 | 67 | 1004.2 |
| 20260507184504 | 20 | 305 | 8.0 | 9.7 | 0.00 | 0.00 | 0.00 | 67 | 1004.2 |
| 20260507184004 | 20 | 311 | 8.0 | 9.7 | 0.00 | 0.00 | 0.00 | 66 | 1004.2 |
| 20260507183504 | 20 | 310 | 8.0 | 11.3 | 0.00 | 0.00 | 0.00 | 66 | 1004.2 |
| 20260507183004 | 20 | 311 | 8.0 | 12.9 | 0.00 | 0.00 | 0.00 | 66 | 1004.2 |
| 20260507182715 | 20 | 303 | 9.7 | 12.9 | 0.00 | 0.00 | 0.00 | 66 | 1004.2 |
| 20260507182006 | 20 | 296 | 9.7 | 12.9 | 0.00 | 0.00 | 0.00 | 66 | 1005.3 |
| 20260507181504 | 20 | 297 | 9.7 | 12.9 | 0.00 | 0.00 | 0.00 | 66 | 1005.3 |
| 20260507181005 | 20 | 292 | 9.7 | 12.9 | 0.00 | 0.00 | 0.00 | 66 | 1004.2 |
| 20260507180717 | 20 | 288 | 9.7 | 12.9 | 0.00 | 0.00 | 0.00 | 65 | 1004.2 |
| 20260507180004 | 20 | 299 | 8.0 | 11.3 | 0.00 | 0.00 | 0.00 | 62 | 1004.2 |
| 20260507175504 | 20 | 308 | 8.0 | 11.3 | 0.00 | 0.00 | 0.00 | 61 | 1004.2 |
| 20260507175005 | 20 | 307 | 8.0 | 11.3 | 0.00 | 0.00 | 0.00 | 60 | 1004.2 |
| 20260507174714 | 20 | 303 | 8.0 | 11.3 | 0.00 | 0.00 | 0.00 | 60 | 1004.2 |
| 20260507174004 | 21 | 289 | 8.0 | 11.3 | 0.00 | 0.00 | 0.00 | 61 | 1004.2 |
| 20260507173504 | 21 | 293 | 9.7 | 12.9 | 0.00 | 0.00 | 0.00 | 59 | 1004.2 |
| 20260507173004 | 21 | 288 | 11.3 | 14.5 | 0.00 | 0.00 | 0.00 | 58 | 1004.2 |
| 20260507172716 | 21 | 281 | 11.3 | 14.5 | 0.00 | 0.00 | 0.00 | 57 | 1004.2 |
| 20260507172005 | 21 | 273 | 9.7 | 14.5 | 0.00 | 0.00 | 0.00 | 53 | 1004.2 |
| 20260507171717 | 21 | 271 | 9.7 | 14.5 | 0.00 | 0.00 | 0.00 | 53 | 1004.2 |
| 20260507171004 | 22 | 281 | 9.7 | 12.9 | 0.00 | 0.00 | 0.00 | 52 | 1004.2 |
| 20260507170504 | 22 | 289 | 9.7 | 12.9 | 0.00 | 0.00 | 0.00 | 52 | 1004.2 |
| 20260507170004 | 22 | 291 | 11.3 | 12.9 | 0.00 | 0.00 | 0.00 | 52 | 1004.2 |
| 20260507165504 | 22 | 298 | 11.3 | 12.9 | 0.00 | 0.00 | 0.00 | 52 | 1004.2 |
| 20260507165003 | 22 | 302 | 11.3 | 12.9 | 0.00 | 0.00 | 0.00 | 53 | 1004.2 |
| 20260507164505 | 22 | 306 | 11.3 | 14.5 | 0.00 | 0.00 | 0.00 | 52 | 1004.2 |
| 20260507164003 | 22 | 301 | 9.7 | 14.5 | 0.00 | 0.00 | 0.00 | 52 | 1004.2 |
| 20260507163503 | 22 | 298 | 9.7 | 12.9 | 0.00 | 0.00 | 0.00 | 52 | 1004.2 |
| 20260507163004 | 22 | 296 | 9.7 | 14.5 | 0.00 | 0.00 | 0.00 | 52 | 1004.2 |
| 20260507162504 | 22 | 287 | 12.9 | 17.7 | 0.00 | 0.00 | 0.00 | 52 | 1004.2 |
| 20260507162003 | 22 | 283 | 16.1 | 20.9 | 0.00 | 0.00 | 0.00 | 52 | 1004.2 |
| 20260507161503 | 22 | 281 | 16.1 | 20.9 | 0.00 | 0.00 | 0.00 | 52 | 1004.2 |
| 20260507161215 | 22 | 276 | 16.1 | 27.4 | 0.00 | 0.00 | 0.00 | 52 | 1004.2 |
| 20260507160503 | 22 | 271 | 16.1 | 27.4 | 0.00 | 0.00 | 0.00 | 52 | 1004.2 |
| 20260507160004 | 22 | 258 | 14.5 | 20.9 | 0.00 | 0.00 | 0.00 | 52 | 1004.2 |
| 20260507155503 | 22 | 251 | 14.5 | 19.3 | 0.00 | 0.00 | 0.00 | 53 | 1004.2 |
| 20260507155003 | 22 | 249 | 16.1 | 22.5 | 0.00 | 0.00 | 0.00 | 53 | 1004.2 |
| 20260507154503 | 23 | 240 | 16.1 | 22.5 | 0.00 | 0.00 | 0.00 | 53 | 1004.2 |
| 20260507154004 | 23 | 205 | 16.1 | 20.9 | 0.00 | 0.00 | 0.00 | 53 | 1004.2 |
| 20260507153716 | 23 | 183 | 16.1 | 20.9 | 0.00 | 0.00 | 0.00 | 54 | 1004.2 |
| 20260507153003 | 23 | 217 | 16.1 | 24.1 | 0.00 | 0.00 | 0.00 | 54 | 1004.2 |
| 20260507152503 | 23 | 218 | 16.1 | 22.5 | 0.00 | 0.00 | 0.00 | 54 | 1004.2 |
| 20260507152003 | 23 | 202 | 16.1 | 22.5 | 0.00 | 0.00 | 0.00 | 55 | 1004.2 |
| 20260507151504 | 23 | 182 | 16.1 | 20.9 | 0.00 | 0.00 | 0.00 | 56 | 1004.2 |
| 20260507151003 | 23 | 180 | 19.3 | 24.1 | 0.00 | 0.00 | 0.00 | 56 | 1003.2 |
| 20260507150503 | 23 | 180 | 16.1 | 24.1 | 0.00 | 0.00 | 0.00 | 55 | 1003.2 |
| 20260507150217 | 23 | 178 | 12.9 | 24.1 | 0.00 | 0.00 | 0.00 | 55 | 1003.2 |
| 20260507145503 | 23 | 173 | 8.0 | 12.9 | 0.00 | 0.00 | 0.00 | 55 | 1004.2 |
| 20260507145004 | 23 | 179 | 9.7 | 16.1 | 0.00 | 0.00 | 0.00 | 54 | 1004.2 |
| 20260507144503 | 23 | 180 | 11.3 | 16.1 | 0.00 | 0.00 | 0.00 | 54 | 1004.2 |
| 20260507144003 | 23 | 211 | 12.9 | 24.1 | 0.00 | 0.00 | 0.00 | 54 | 1004.2 |
| 20260507143503 | 23 | 238 | 14.5 | 24.1 | 0.00 | 0.00 | 0.00 | 54 | 1004.2 |
| 20260507143004 | 23 | 198 | 14.5 | 17.7 | 0.00 | 0.00 | 0.00 | 53 | 1004.2 |
| 20260507142717 | 23 | 180 | 14.5 | 19.3 | 0.00 | 0.00 | 0.00 | 55 | 1004.2 |
| 20260507142004 | 23 | 193 | 16.1 | 25.7 | 0.00 | 0.00 | 0.00 | 54 | 1004.2 |
| 20260507141504 | 23 | 193 | 17.7 | 25.7 | 0.00 | 0.00 | 0.00 | 55 | 1004.2 |
| 20260507141004 | 23 | 207 | 16.1 | 22.5 | 0.00 | 0.00 | 0.00 | 56 | 1004.2 |
| 20260507140504 | 23 | 205 | 14.5 | 17.7 | 0.00 | 0.00 | 0.00 | 56 | 1004.2 |
| 20260507140004 | 23 | 180 | 14.5 | 17.7 | 0.00 | 0.00 | 0.00 | 56 | 1004.2 |
| 20260507135504 | 23 | 180 | 14.5 | 20.9 | 0.00 | 0.00 | 0.00 | 56 | 1004.2 |
| 20260507135004 | 23 | 213 | 14.5 | 20.9 | 0.00 | 0.00 | 0.00 | 56 | 1004.2 |
| 20260507134504 | 23 | 258 | 12.9 | 17.7 | 0.00 | 0.00 | 0.00 | 54 | 1004.2 |
| 20260507134004 | 23 | 252 | 16.1 | 19.3 | 0.00 | 0.00 | 0.00 | 55 | 1004.2 |
| 20260507133504 | 23 | 212 | 19.3 | 37.0 | 0.00 | 0.00 | 0.00 | 56 | 1004.2 |
| 20260507133004 | 23 | 220 | 17.7 | 37.0 | 0.00 | 0.00 | 0.00 | 57 | 1004.2 |
| 20260507132713 | 23 | 238 | 16.1 | 37.0 | 0.00 | 0.00 | 0.00 | 55 | 1004.2 |
| 20260507132004 | 23 | 302 | 14.5 | 22.5 | 0.00 | 0.00 | 0.00 | 56 | 1004.2 |
| 20260507131504 | 23 | 286 | 14.5 | 22.5 | 0.00 | 0.00 | 0.00 | 57 | 1004.2 |
| 20260507131004 | 22 | 247 | 14.5 | 19.3 | 0.00 | 0.00 | 0.00 | 58 | 1004.2 |
| 20260507130506 | 23 | 237 | 14.5 | 20.9 | 0.00 | 0.00 | 0.00 | 60 | 1004.2 |
| 20260507130004 | 22 | 250 | 14.5 | 22.5 | 0.00 | 0.00 | 0.00 | 62 | 1004.2 |
| 20260507125506 | 22 | 255 | 12.9 | 22.5 | 0.00 | 0.00 | 0.00 | 62 | 1004.2 |
| 20260507125004 | 22 | 199 | 11.3 | 14.5 | 0.00 | 0.00 | 0.00 | 62 | 1004.2 |
| 20260507124506 | 22 | 174 | 9.7 | 16.1 | 0.00 | 0.00 | 0.00 | 62 | 1004.2 |
| 20260507124004 | 22 | 164 | 9.7 | 16.1 | 0.00 | 0.00 | 0.00 | 61 | 1004.2 |
| 20260507123504 | 22 | 157 | 11.3 | 16.1 | 0.00 | 0.00 | 0.00 | 61 | 1004.2 |
| 20260507123217 | 22 | 163 | 11.3 | 16.1 | 0.00 | 0.00 | 0.00 | 61 | 1004.2 |
| 20260507122503 | 22 | 172 | 9.7 | 12.9 | 0.00 | 0.00 | 0.00 | 61 | 1004.2 |
| 20260507122004 | 22 | 169 | 9.7 | 16.1 | 0.00 | 0.00 | 0.00 | 61 | 1004.2 |
| 20260507121504 | 22 | 165 | 9.7 | 16.1 | 0.00 | 0.00 | 0.00 | 60 | 1004.2 |
| 20260507121004 | 22 | 165 | 9.7 | 16.1 | 0.00 | 0.00 | 0.00 | 60 | 1004.2 |
| 20260507120503 | 22 | 167 | 12.9 | 16.1 | 0.00 | 0.00 | 0.00 | 60 | 1004.2 |
| 20260507120004 | 22 | 169 | 12.9 | 14.5 | 0.00 | 0.00 | 0.00 | 60 | 1004.2 |
| 20260507115504 | 22 | 170 | 11.3 | 14.5 | 0.00 | 0.00 | 0.00 | 60 | 1004.2 |
| 20260507115004 | 22 | 174 | 11.3 | 17.7 | 0.00 | 0.00 | 0.00 | 60 | 1004.2 |
| 20260507114503 | 22 | 175 | 14.5 | 17.7 | 0.00 | 0.00 | 0.00 | 60 | 1004.2 |
| 20260507114003 | 22 | 170 | 14.5 | 20.9 | 0.00 | 0.00 | 0.00 | 60 | 1004.2 |
| 20260507113504 | 22 | 166 | 16.1 | 20.9 | 0.00 | 0.00 | 0.00 | 59 | 1004.2 |
| 20260507113004 | 22 | 171 | 16.1 | 20.9 | 0.00 | 0.00 | 0.00 | 59 | 1004.2 |
| 20260507112505 | 22 | 172 | 14.5 | 20.9 | 0.00 | 0.00 | 0.00 | 59 | 1004.2 |
| 20260507112003 | 22 | 164 | 14.5 | 17.7 | 0.00 | 0.00 | 0.00 | 59 | 1004.2 |
| 20260507111504 | 22 | 168 | 16.1 | 22.5 | 0.00 | 0.00 | 0.00 | 58 | 1004.2 |
| 20260507111003 | 22 | 170 | 16.1 | 22.5 | 0.00 | 0.00 | 0.00 | 58 | 1004.2 |
| 20260507110503 | 23 | 160 | 14.5 | 22.5 | 0.00 | 0.00 | 0.00 | 58 | 1004.2 |
| 20260507110003 | 23 | 150 | 11.3 | 16.1 | 0.00 | 0.00 | 0.00 | 57 | 1004.2 |
| 20260507105503 | 23 | 144 | 11.3 | 17.7 | 0.00 | 0.00 | 0.00 | 57 | 1004.2 |
| 20260507105215 | 23 | 140 | 12.9 | 17.7 | 0.00 | 0.00 | 0.00 | 57 | 1004.2 |
| 20260507104504 | 23 | 135 | 12.9 | 17.7 | 0.00 | 0.00 | 0.00 | 56 | 1004.2 |
| 20260507104216 | 23 | 135 | 11.3 | 14.5 | 0.00 | 0.00 | 0.00 | 56 | 1004.2 |
| 20260507103504 | 23 | 137 | 11.3 | 19.3 | 0.00 | 0.00 | 0.00 | 56 | 1004.2 |
| 20260507103004 | 23 | 140 | 9.7 | 14.5 | 0.00 | 0.00 | 0.00 | 55 | 1004.2 |
| 20260507102504 | 23 | 154 | 11.3 | 17.7 | 0.00 | 0.00 | 0.00 | 55 | 1005.3 |
| 20260507102006 | 23 | 157 | 9.7 | 17.7 | 0.00 | 0.00 | 0.00 | 54 | 1005.3 |
| 20260507101504 | 24 | 128 | 8.0 | 11.3 | 0.00 | 0.00 | 0.00 | 55 | 1005.3 |
| 20260507101214 | 24 | 130 | 9.7 | 16.1 | 0.00 | 0.00 | 0.00 | 54 | 1005.3 |
| 20260507100717 | 23 | 109 | 12.9 | 17.7 | 0.00 | 0.00 | 0.00 | 55 | 1005.3 |
| 20260507100004 | 23 | 106 | 14.5 | 17.7 | 0.00 | 0.00 | 0.00 | 55 | 1005.3 |
| 20260507095504 | 23 | 111 | 14.5 | 19.3 | 0.00 | 0.00 | 0.00 | 56 | 1004.2 |
| 20260507095004 | 23 | 109 | 16.1 | 19.3 | 0.00 | 0.00 | 0.00 | 55 | 1004.2 |
| 20260507094504 | 23 | 99 | 14.5 | 19.3 | 0.00 | 0.00 | 0.00 | 54 | 1004.2 |
| 20260507094004 | 23 | 97 | 14.5 | 27.4 | 0.00 | 0.00 | 0.00 | 54 | 1004.2 |
| 20260507093504 | 23 | 101 | 19.3 | 27.4 | 0.00 | 0.00 | 0.00 | 53 | 1004.2 |
| 20260507093218 | 23 | 99 | 19.3 | 30.6 | 0.00 | 0.00 | 0.00 | 54 | 1004.2 |
| 20260507092504 | 22 | 96 | 22.5 | 30.6 | 0.00 | 0.00 | 0.00 | 53 | 1004.2 |
| 20260507092005 | 22 | 96 | 20.9 | 27.4 | 0.00 | 0.00 | 0.00 | 53 | 1004.2 |
| 20260507091504 | 22 | 101 | 19.3 | 25.7 | 0.00 | 0.00 | 0.00 | 54 | 1004.2 |
| 20260507091004 | 22 | 99 | 19.3 | 25.7 | 0.00 | 0.00 | 0.00 | 55 | 1004.2 |
| 20260507090506 | 22 | 93 | 20.9 | 29.0 | 0.00 | 0.00 | 0.00 | 54 | 1004.2 |
| 20260507090005 | 22 | 94 | 22.5 | 29.0 | 0.00 | 0.00 | 0.00 | 55 | 1004.2 |
| 20260507085504 | 22 | 99 | 22.5 | 29.0 | 0.00 | 0.00 | 0.00 | 53 | 1004.2 |
| 20260507085004 | 22 | 103 | 20.9 | 32.2 | 0.00 | 0.00 | 0.00 | 53 | 1004.2 |
| 20260507084504 | 22 | 101 | 19.3 | 32.2 | 0.00 | 0.00 | 0.00 | 51 | 1004.2 |
| 20260507084004 | 22 | 96 | 19.3 | 32.2 | 0.00 | 0.00 | 0.00 | 52 | 1004.2 |
| 20260507083503 | 22 | 90 | 17.7 | 22.5 | 0.00 | 0.00 | 0.00 | 52 | 1004.2 |
| 20260507083004 | 22 | 102 | 16.1 | 22.5 | 0.00 | 0.00 | 0.00 | 52 | 1004.2 |
| 20260507082506 | 22 | 104 | 17.7 | 24.1 | 0.00 | 0.00 | 0.00 | 53 | 1004.2 |
| 20260507082214 | 22 | 96 | 16.1 | 24.1 | 0.00 | 0.00 | 0.00 | 53 | 1004.2 |
| 20260507081503 | 22 | 99 | 16.1 | 24.1 | 0.00 | 0.00 | 0.00 | 52 | 1004.2 |
| 20260507081004 | 22 | 101 | 16.1 | 33.8 | 0.00 | 0.00 | 0.00 | 52 | 1004.2 |
| 20260507080504 | 22 | 97 | 19.3 | 33.8 | 0.00 | 0.00 | 0.00 | 51 | 1004.2 |
| 20260507080004 | 22 | 85 | 20.9 | 29.0 | 0.00 | 0.00 | 0.00 | 51 | 1004.2 |
| 20260507075503 | 22 | 82 | 20.9 | 29.0 | 0.00 | 0.00 | 0.00 | 52 | 1004.2 |
| 20260507075003 | 22 | 82 | 22.5 | 29.0 | 0.00 | 0.00 | 0.00 | 50 | 1004.2 |
| 20260507074503 | 22 | 85 | 22.5 | 24.1 | 0.00 | 0.00 | 0.00 | 50 | 1004.2 |
| 20260507074003 | 22 | 83 | 22.5 | 29.0 | 0.00 | 0.00 | 0.00 | 48 | 1004.2 |
| 20260507073716 | 22 | 83 | 20.9 | 29.0 | 0.00 | 0.00 | 0.00 | 50 | 1004.2 |
| 20260507073003 | 22 | 88 | 20.9 | 27.4 | 0.00 | 0.00 | 0.00 | 50 | 1004.2 |
| 20260507072503 | 22 | 87 | 19.3 | 27.4 | 0.00 | 0.00 | 0.00 | 50 | 1004.2 |
| 20260507072003 | 22 | 84 | 17.7 | 22.5 | 0.00 | 0.00 | 0.00 | 49 | 1004.2 |
| 20260507071718 | 22 | 85 | 17.7 | 25.7 | 0.00 | 0.00 | 0.00 | 50 | 1004.2 |
| 20260507071003 | 22 | 90 | 17.7 | 25.7 | 0.00 | 0.00 | 0.00 | 49 | 1005.3 |
| 20260507070503 | 22 | 93 | 17.7 | 20.9 | 0.00 | 0.00 | 0.00 | 50 | 1005.3 |
| 20260507070006 | 22 | 99 | 17.7 | 24.1 | 0.00 | 0.00 | 0.00 | 50 | 1005.3 |
| 20260507065503 | 22 | 93 | 16.1 | 24.1 | 0.00 | 0.00 | 0.00 | 48 | 1004.2 |
| 20260507065003 | 22 | 79 | 12.9 | 19.3 | 0.00 | 0.00 | 0.00 | 47 | 1004.2 |
| 20260507064503 | 22 | 77 | 14.5 | 19.3 | 0.00 | 0.00 | 0.00 | 49 | 1004.2 |
| 20260507064003 | 22 | 78 | 14.5 | 19.3 | 0.00 | 0.00 | 0.00 | 48 | 1004.2 |